DC4AT Weather Reports


Display with metric or nautical units.
time (UTC)temp
F
wind
direction
speed
MPH
gust
MPH
rain 1hr
in
rain 24hr
in
rain mn
in
humidity
%
barometer
mb
20260509120320 59 56 2.0 8.0 0.00 0.02 0.01 65 1020.0
20260509115320 59 155 3.0 8.0 0.00 0.02 0.01 70 1020.1
20260509114320 58 42 3.0 9.0 0.00 0.02 0.01 70 1020.2
20260509113320 58 18 2.0 8.0 0.00 0.02 0.01 71 1020.3
20260509112320 58 25 3.0 6.0 0.00 0.02 0.01 72 1020.3
20260509111320 57 105 2.0 6.0 0.00 0.02 0.01 73 1020.5
20260509110320 56 52 4.0 6.0 0.00 0.02 0.01 73 1020.4
20260509105320 57 48 4.0 7.0 0.00 0.02 0.01 73 1020.5
20260509104320 57 113 4.0 10.0 0.00 0.02 0.01 74 1020.5
20260509103320 57 20 4.0 9.0 0.00 0.02 0.01 73 1020.7
20260509102320 57 53 3.0 9.0 0.00 0.02 0.01 74 1020.7
20260509101320 56 346 4.0 9.0 0.00 0.02 0.01 76 1020.7
20260509100320 56 63 5.0 8.0 0.00 0.02 0.01 78 1020.6
20260509095320 55 88 4.0 8.0 0.00 0.02 0.01 79 1020.7
20260509094320 55 76 3.0 8.0 0.00 0.02 0.01 80 1020.7
20260509093320 55 51 2.0 7.0 0.00 0.02 0.01 80 1020.7
20260509092320 55 313 3.0 7.0 0.00 0.02 0.01 83 1020.8
20260509091321 54 55 4.0 9.0 0.00 0.02 0.01 81 1020.8
20260509090321 54 13 3.0 8.0 0.00 0.02 0.01 83 1020.8
20260509085321 54 40 2.0 4.0 0.00 0.02 0.01 84 1020.8
20260509084321 53 44 2.0 4.0 0.00 0.02 0.01 84 1020.9
20260509083321 53 27 3.0 5.0 0.00 0.02 0.01 84 1020.9
20260509082321 53 55 3.0 5.0 0.00 0.02 0.01 84 1020.9
20260509081321 52 45 3.0 6.0 0.00 0.02 0.01 85 1020.9
20260509080321 52 43 1.0 6.0 0.00 0.02 0.01 86 1020.9
20260509075321 52 35 0.0 0.0 0.00 0.02 0.01 87 1020.8
20260509074321 52 34 1.0 4.0 0.00 0.02 0.01 87 1020.8
20260509073321 51 40 2.0 3.0 0.00 0.03 0.01 87 1020.9
20260509072321 51 49 0.0 4.0 0.00 0.03 0.01 87 1020.8
20260509071321 51 47 1.0 3.0 0.00 0.03 0.01 87 1020.8
20260509070321 50 46 1.0 3.0 0.00 0.03 0.01 86 1020.8
20260509065321 50 97 0.0 4.0 0.00 0.03 0.01 85 1020.9
20260509064321 49 262 0.0 0.0 0.00 0.03 0.01 84 1020.8
20260509063321 49 223 0.0 0.0 0.00 0.03 0.01 84 1020.7
20260509062321 48 223 0.0 0.0 0.00 0.03 0.01 84 1020.7
20260509061321 48 223 0.0 0.0 0.00 0.03 0.01 84 1020.7
20260509060321 47 223 0.0 0.0 0.00 0.03 0.01 84 1020.7
20260509055321 47 223 0.0 0.0 0.00 0.03 0.01 85 1020.8
20260509054321 48 221 0.0 0.0 0.00 0.03 0.01 84 1020.7
20260509053321 47 221 0.0 0.0 0.00 0.03 0.01 85 1020.7
20260509052321 47 213 0.0 0.0 0.00 0.03 0.01 84 1020.8
20260509051321 47 213 0.0 0.0 0.00 0.03 0.01 85 1020.6
20260509050321 48 213 0.0 0.0 0.00 0.03 0.01 85 1020.6
20260509045321 47 115 0.0 0.0 0.01 0.03 0.01 85 1020.6
20260509044321 47 115 0.0 0.0 0.01 0.03 0.01 85 1020.6
20260509043321 47 115 0.0 0.0 0.01 0.03 0.01 85 1020.6
20260509042321 47 115 0.0 0.0 0.01 0.03 0.01 85 1020.5
20260509041321 47 115 0.0 0.0 0.01 0.03 0.01 85 1020.5
20260509040321 47 83 0.0 0.0 0.01 0.03 0.01 86 1020.5
20260509035321 47 83 0.0 0.0 0.00 0.02 0.00 86 1020.5
20260509034321 47 83 0.0 0.0 0.00 0.02 0.00 86 1020.4
20260509033321 47 83 0.0 0.0 0.00 0.03 0.00 86 1020.5
20260509032321 47 83 0.0 0.0 0.00 0.03 0.00 86 1020.7
20260509031321 47 83 0.0 0.0 0.00 0.03 0.00 86 1020.8
20260509030321 48 83 0.0 0.0 0.00 0.03 0.00 87 1020.8
20260509025321 48 83 0.0 0.0 0.00 0.03 0.00 87 1020.9
20260509024321 48 83 0.0 0.0 0.00 0.03 0.00 87 1020.9
20260509023321 48 83 0.0 0.0 0.00 0.03 0.00 87 1020.9
20260509022321 48 83 0.0 0.0 0.00 0.03 0.00 87 1020.8
20260509021321 48 83 0.0 0.0 0.00 0.03 0.00 87 1020.8
20260509020322 48 83 0.0 0.0 0.00 0.03 0.00 87 1020.8
20260509015322 48 83 1.0 2.0 0.00 0.03 0.00 87 1020.8
20260509014322 48 93 2.0 5.0 0.00 0.03 0.00 87 1020.7
20260509013322 48 100 0.0 1.0 0.00 0.03 0.00 87 1020.7
20260509012322 48 103 0.0 3.0 0.00 0.03 0.00 87 1020.7
20260509011322 48 82 1.0 4.0 0.00 0.03 0.00 87 1020.7
20260509010322 48 82 2.0 5.0 0.00 0.03 0.00 87 1020.7
20260509005322 48 68 0.0 1.0 0.00 0.03 0.00 87 1020.8
20260509004322 48 105 0.0 3.0 0.00 0.03 0.00 87 1020.7
20260509003322 48 74 0.0 0.0 0.00 0.03 0.00 87 1020.8
20260509002322 48 72 0.0 0.0 0.00 0.03 0.00 87 1020.8
20260509001322 48 72 1.0 3.0 0.00 0.03 0.00 87 1020.7
20260509000322 48 69 1.0 1.0 0.00 0.03 0.00 87 1020.7
20260508235322 48 83 1.0 3.0 0.00 0.03 0.00 87 1020.6
20260508234322 48 92 2.0 4.0 0.00 0.03 0.00 87 1020.7
20260508233322 48 91 2.0 3.0 0.00 0.03 0.00 87 1020.7
20260508232322 48 90 2.0 3.0 0.00 0.03 0.00 87 1020.8
20260508231322 48 82 2.0 4.0 0.00 0.03 0.00 87 1020.7
20260508230322 48 100 0.0 0.0 0.00 0.03 0.00 87 1020.9
20260508225322 48 100 0.0 0.0 0.00 0.03 0.00 87 1020.9
20260508224322 48 97 0.0 0.0 0.00 0.03 0.00 87 1020.8
20260508223322 48 97 1.0 3.0 0.00 0.03 0.00 87 1020.8
20260508222322 48 94 2.0 3.0 0.00 0.03 0.00 87 1020.7
20260508221322 48 91 1.0 3.0 0.00 0.03 0.03 87 1020.8
20260508220322 48 93 1.0 3.0 0.00 0.03 0.03 87 1020.7
20260508215322 48 84 3.0 5.0 0.00 0.03 0.03 87 1020.6
20260508214322 49 85 2.0 6.0 0.00 0.03 0.03 87 1020.6
20260508213322 49 88 2.0 5.0 0.00 0.03 0.03 87 1020.7
20260508212322 49 88 2.0 4.0 0.00 0.03 0.03 87 1020.7
20260508211322 49 84 2.0 3.0 0.00 0.03 0.03 87 1020.9
20260508210322 49 96 2.0 4.0 0.00 0.03 0.03 87 1020.8
20260508205322 49 73 1.0 3.0 0.00 0.03 0.03 87 1020.8
20260508204322 49 85 1.0 3.0 0.00 0.03 0.03 87 1020.7
20260508203322 49 86 1.0 0.0 0.00 0.03 0.03 86 1020.7
20260508202322 49 84 0.0 3.0 0.00 0.03 0.03 86 1020.6
20260508201322 49 79 1.0 3.0 0.00 0.03 0.03 86 1020.7
20260508200322 49 82 0.0 2.0 0.00 0.03 0.03 86 1020.6
20260508195322 49 83 1.0 2.0 0.00 0.03 0.03 86 1020.6
20260508194322 50 79 0.0 0.0 0.00 0.03 0.03 86 1020.6
20260508193322 50 79 1.0 0.0 0.00 0.04 0.03 85 1020.7
20260508192322 50 72 1.0 3.0 0.00 0.04 0.03 84 1020.6
20260508191322 50 95 2.0 3.0 0.00 0.04 0.03 85 1020.5
20260508190322 50 85 3.0 5.0 0.00 0.04 0.03 85 1020.3
20260508185322 50 102 3.0 6.0 0.00 0.04 0.03 84 1020.2
20260508184323 50 81 3.0 6.0 0.00 0.04 0.03 84 1020.1
20260508183323 50 96 3.0 6.0 0.00 0.04 0.03 84 1020.1
20260508182323 50 84 3.0 6.0 0.00 0.04 0.03 84 1020.2
20260508181323 51 76 3.0 4.0 0.00 0.04 0.03 84 1020.2
20260508180323 51 91 3.0 5.0 0.00 0.04 0.03 84 1020.2
20260508175323 51 76 1.0 4.0 0.00 0.04 0.03 84 1020.1
20260508174323 51 83 2.0 5.0 0.00 0.04 0.03 83 1020.1
20260508173323 51 92 1.0 6.0 0.00 0.04 0.03 83 1020.1
20260508172323 51 71 0.0 1.0 0.00 0.04 0.03 83 1020.0
20260508171323 51 71 0.0 0.0 0.00 0.04 0.03 83 1020.1
20260508170323 52 71 0.0 0.0 0.00 0.04 0.03 83 1020.0
20260508165323 51 71 0.0 0.0 0.00 0.04 0.03 82 1020.1
20260508164323 52 71 0.0 0.0 0.00 0.04 0.03 81 1020.0
20260508163323 52 71 0.0 2.0 0.00 0.04 0.03 81 1020.1
20260508162323 52 71 1.0 3.0 0.00 0.04 0.03 81 1020.1
20260508161323 52 71 0.0 3.0 0.00 0.04 0.03 81 1020.1
20260508160323 52 71 1.0 3.0 0.00 0.04 0.03 81 1020.2
20260508155323 52 71 2.0 3.0 0.00 0.04 0.03 80 1020.1
20260508154323 52 70 1.0 4.0 0.00 0.04 0.03 80 1020.1
20260508153323 52 74 2.0 5.0 0.00 0.05 0.03 79 1020.1
20260508152323 52 70 3.0 5.0 0.00 0.05 0.03 80 1020.1
20260508151323 52 63 2.0 5.0 0.00 0.05 0.03 79 1020.2
20260508150323 52 76 1.0 3.0 0.00 0.05 0.03 80 1020.1
20260508145323 52 80 2.0 3.0 0.00 0.05 0.03 80 1020.1
20260508144323 52 102 1.0 2.0 0.00 0.05 0.03 80 1020.2
20260508143323 52 104 1.0 4.0 0.00 0.05 0.03 79 1020.0
20260508142323 52 72 1.0 4.0 0.00 0.05 0.03 79 1020.1
20260508141323 52 62 2.0 5.0 0.00 0.05 0.03 77 1020.1
20260508140323 52 91 2.0 4.0 0.01 0.05 0.03 76 1020.1
20260508135323 53 55 2.0 6.0 0.01 0.05 0.03 75 1020.1
20260508134323 52 154 3.0 5.0 0.01 0.05 0.03 74 1020.1
20260508133323 52 102 2.0 5.0 0.01 0.05 0.03 77 1020.1
20260508132323 52 48 2.0 3.0 0.01 0.05 0.03 77 1020.1
20260508131323 52 45 3.0 4.0 0.01 0.05 0.03 77 1020.2
20260508130323 52 45 2.0 4.0 0.00 0.04 0.02 78 1020.2
20260508125323 52 28 2.0 4.0 0.00 0.04 0.02 79 1020.4
20260508124323 52 64 2.0 5.0 0.00 0.04 0.02 78 1020.4
20260508123323 52 81 2.0 4.0 0.00 0.04 0.02 79 1020.4
20260508122323 52 92 3.0 5.0 0.00 0.04 0.02 78 1020.4
20260508121323 52 80 1.0 0.0 0.00 0.04 0.02 79 1020.4